QPF
0.00 0.00 0.01 0.01 0.02 0.02 0.02 0.02 0.01 0.00 0.00 0.00 0.00 0.01 0.01 0.00 0.00 0.00 0.00 0.00 0.00 0.00 0.00 0.00 0.00 0.00 0.00 0.00 0.01 0.01 0.00 0.00 0.00 0.00 0.01 0.01 0.01 0.01 0.01 0.01 0.01 0.01 0.01 0.03
0.01 0.01 0.00 0.00 0.01 0.01 0.02 0.03 0.02 0.00 0.00 0.00 0.00 0.00 0.00 0.00 0.00 0.00 0.00 0.00 0.00 0.00 0.00 0.00 0.00 0.00 0.00 0.00 0.00 0.00 0.00 0.00 0.00 0.00 0.00 0.01 0.01 0.00 0.01 0.02 0.03 0.03 0.02 0.02
0.01 0.00 0.00 0.00 0.01 0.01 0.01 0.02 0.02 0.01 0.00 0.00 0.00 0.00 0.00 0.00 0.00 0.00 0.00 0.00 0.00 0.00 0.00 0.00 0.00 0.00 0.00 0.00 0.00 0.00 0.00 0.01 0.00 0.00 0.00 0.00 0.00 0.00 0.01 0.02 0.04 0.05 0.04 0.03
0.01 0.00 0.00 0.00 0.00 0.01 0.01 0.00 0.00 0.00 0.00 0.00 0.00 0.01 0.00 0.00 0.00 0.00 0.00 0.00 0.00 0.00 0.00 0.00 0.00 0.00 0.00 0.00 0.00 0.00 0.00 0.00 0.00 0.00 0.00 0.00 0.00 0.01 0.03 0.06 0.04 0.04 0.04 0.05
0.01 0.00 0.00 0.00 0.00 0.00 0.00 0.00 0.00 0.00 0.00 0.00 0.00 0.01 0.00 0.00 0.00 0.00 0.00 0.00 0.00 0.00 0.00 0.00 0.00 0.00 0.00 0.00 0.00 0.00 0.00 0.01 0.00 0.00 0.01 0.01 0.00 0.01 0.01 0.04 0.03 0.03 0.04 0.05
0.00 0.00 0.00 0.00 0.00 0.00 0.00 0.00 0.00 0.00 0.00 0.01 0.00 0.00 0.00 0.00 0.00 0.00 0.00 0.00 0.00 0.00 0.00 0.00 0.00 0.00 0.00 0.00 0.00 0.00 0.00 0.00 0.00 0.01 0.01 0.00 0.00 0.00 0.01 0.02 0.02 0.02 0.02 0.03
0.00 0.00 0.00 0.00 0.00 0.00 0.00 0.01 0.02 0.02 0.02 0.01 0.00 0.00 0.00 0.00 0.00 0.00 0.00 0.00 0.00 0.00 0.00 0.00 0.00 0.00 0.00 0.00 0.00 0.00 0.00 0.00 0.00 0.01 0.01 0.00 0.00 0.00 0.00 0.01 0.01 0.01 0.02 0.02
0.00 0.01 0.00 0.00 0.00 0.00 0.00 0.00 0.01 0.02 0.02 0.01 0.00 0.00 0.00 0.00 0.00 0.00 0.00 0.00 0.00 0.00 0.00 0.00 0.00 0.00 0.00 0.00 0.00 0.00 0.00 0.00 0.00 0.01 0.00 0.00 0.01 0.00 0.00 0.01 0.02 0.02 0.01 0.00
0.00 0.01 0.00 0.00 0.00 0.00 0.00 0.00 0.00 0.00 0.01 0.01 0.00 0.00 0.00 0.00 0.00 0.00 0.00 0.00 0.00 0.00 0.00 0.00 0.00 0.00 0.00 0.00 0.00 0.00 0.00 0.00 0.01 0.01 0.00 0.00 0.01 0.01 0.01 0.01 0.01 0.01 0.00 0.00
0.00 0.00 0.00 0.00 0.00 0.00 0.00 0.00 0.00 0.00 0.01 0.02 0.01 0.00 0.00 0.00 0.00 0.00 0.00 0.00 0.00 0.00 0.00 0.01 0.02 0.01 0.00 0.00 0.00 0.00 0.00 0.01 0.02 0.01 0.00 0.00 0.00 0.00 0.01 0.01 0.01 0.01 0.01 0.01
0.00 0.00 0.00 0.00 0.00 0.00 0.00 0.00 0.00 0.00 0.01 0.01 0.01 0.01 0.00 0.00 0.00 0.00 0.00 0.00 0.00 0.00 0.00 0.01 0.03 0.03 0.00 0.00 0.00 0.00 0.00 0.00 0.01 0.01 0.00 0.00 0.01 0.01 0.01 0.01 0.01 0.01 0.00 0.00
0.00 0.00 0.00 0.00 0.00 0.00 0.00 0.00 0.00 0.01 0.01 0.01 0.02 0.01 0.00 0.00 0.00 0.00 0.00 0.00 0.00 0.00 0.00 0.00 0.01 0.01 0.01 0.00 0.00 0.00 0.00 0.00 0.00 0.00 0.00 0.00 0.00 0.00 0.01 0.01 0.01 0.01 0.00 0.00
0.00 0.00 0.01 0.01 0.00 0.00 0.00 0.00 0.00 0.00 0.00 0.01 0.02 0.01 0.00 0.00 0.00 0.00 0.00 0.00 0.00 0.00 0.00 0.00 0.00 0.00 0.00 0.00 0.00 0.00 0.00 0.00 0.00 0.00 0.00 0.00 0.00 0.01 0.01 0.01 0.01 0.01 0.00 0.00
0.00 0.00 0.01 0.01 0.00 0.00 0.00 0.00 0.00 0.00 0.01 0.01 0.01 0.01 0.00 0.00 0.00 0.00 0.00 0.00 0.00 0.00 0.00 0.00 0.01 0.00 0.01 0.01 0.01 0.01 0.01 0.01 0.01 0.00 0.00 0.01 0.00 0.01 0.00 0.00 0.00 0.00 0.01 0.01
0.00 0.00 0.00 0.00 0.00 0.00 0.00 0.00 0.00 0.00 0.00 0.01 0.01 0.00 0.00 0.01 0.00 0.00 0.00 0.00 0.00 0.00 0.00 0.00 0.01 0.01 0.01 0.01 0.01 0.01 0.01 0.01 0.01 0.00 0.00 0.01 0.00 0.01 0.00 0.00 0.00 0.00 0.01 0.01
0.00 0.00 0.00 0.00 0.00 0.00 0.00 0.00 0.00 0.00 0.00 0.00 0.00 0.00 0.00 0.00 0.00 0.00 0.00 0.00 0.00 0.00 0.01 0.01 0.01 0.01 0.02 0.02 0.03 0.03 0.03 0.02 0.01 0.01 0.00 0.00 0.00 0.00 0.00 0.00 0.00 0.00 0.01 0.01
0.00 0.00 0.01 0.01 0.00 0.00 0.00 0.00 0.00 0.00 0.00 0.01 0.01 0.00 0.00 0.00 0.00 0.00 0.00 0.00 0.00 0.00 0.01 0.01 0.01 0.02 0.01 0.02 0.02 0.01 0.01 0.01 0.01 0.01 0.01 0.00 0.00 0.01 0.00 0.00 0.00 0.00 0.00 0.00
0.00 0.00 0.01 0.01 0.01 0.01 0.00 0.00 0.00 0.00 0.00 0.00 0.00 0.00 0.00 0.00 0.00 0.00 0.00 0.00 0.00 0.00 0.00 0.00 0.00 0.01 0.01 0.01 0.02 0.01 0.01 0.01 0.01 0.01 0.00 0.00 0.00 0.00 0.00 0.00 0.00 0.00 0.00 0.00
0.00 0.00 0.01 0.01 0.02 0.01 0.01 0.00 0.00 0.00 0.00 0.00 0.01 0.00 0.00 0.00 0.00 0.00 0.00 0.00 0.01 0.01 0.01 0.01 0.01 0.00 0.01 0.01 0.01 0.01 0.01 0.01 0.01 0.00 0.00 0.00 0.00 0.00 0.00 0.00 0.00 0.00 0.00 0.00
0.00 0.00 0.01 0.02 0.02 0.02 0.01 0.01 0.01 0.01 0.01 0.01 0.01 0.01 0.01 0.00 0.00 0.01 0.01 0.00 0.01 0.01 0.01 0.00 0.00 0.00 0.00 0.00 0.00 0.01 0.01 0.01 0.01 0.01 0.01 0.01 0.00 0.00 0.00 0.00 0.00 0.00 0.00 0.00
0.00 0.00 0.01 0.01 0.02 0.02 0.01 0.01 0.01 0.02 0.01 0.01 0.01 0.01 0.01 0.00 0.00 0.01 0.01 0.00 0.00 0.00 0.00 0.00 0.00 0.00 0.00 0.00 0.00 0.01 0.00 0.01 0.01 0.00 0.01 0.01 0.01 0.00 0.00 0.00 0.00 0.01 0.00 0.00
0.00 0.01 0.01 0.01 0.02 0.01 0.01 0.01 0.01 0.01 0.00 0.00 0.00 0.00 0.00 0.00 0.00 0.00 0.00 0.00 0.00 0.00 0.00 0.00 0.00 0.00 0.00 0.00 0.00 0.00 0.00 0.00 0.01 0.00 0.01 0.01 0.01 0.01 0.01 0.01 0.00 0.01 0.01 0.01
0.00 0.01 0.01 0.01 0.01 0.00 0.01 0.01 0.01 0.01 0.00 0.00 0.00 0.00 0.00 0.00 0.00 0.00 0.00 0.00 0.00 0.00 0.00 0.00 0.00 0.00 0.00 0.00 0.00 0.00 0.00 0.00 0.00 0.00 0.01 0.01 0.01 0.00 0.01 0.01 0.01 0.01 0.01 0.01
0.01 0.00 0.01 0.02 0.01 0.00 0.00 0.01 0.02 0.01 0.00 0.00 0.00 0.00 0.01 0.01 0.01 0.01 0.00 0.00 0.00 0.00 0.00 0.00 0.00 0.00 0.00 0.00 0.00 0.00 0.00 0.01 0.00 0.01 0.01 0.01 0.01 0.01 0.00 0.01 0.01 0.01 0.01 0.01
0.01 0.01 0.01 0.02 0.01 0.01 0.01 0.01 0.01 0.01 0.00 0.00 0.00 0.00 0.00 0.00 0.01 0.01 0.01 0.01 0.00 0.00 0.00 0.00 0.00 0.00 0.00 0.00 0.00 0.01 0.00 0.01 0.01 0.01 0.01 0.01 0.01 0.01 0.00 0.00 0.01 0.01 0.01 0.02
0.01 0.01 0.02 0.02 0.02 0.02 0.01 0.01 0.01 0.00 0.00 0.00 0.00 0.00 0.00 0.00 0.01 0.01 0.01 0.01 0.01 0.01 0.01 0.01 0.00 0.00 0.00 0.00 0.00 0.00 0.01 0.01 0.01 0.01 0.01 0.01 0.01 0.01 0.01 0.00 0.00 0.01 0.01 0.01
MSLP
1011.00 1011.39 1011.73 1012.02 1012.26 1012.49 1012.72 1012.94 1013.14 1013.31 1013.41 1013.42 1013.32 1013.12 1012.82 1012.48 1012.11 1011.77 1011.49 1011.28 1011.15 1011.10 1011.11 1011.15 1011.19 1011.23 1011.24 1011.23 1011.22 1011.20 1011.20 1011.24 1011.32 1011.45 1011.61 1011.78 1011.96 1012.12 1012.23 1012.29 1012.31 1012.30 1012.29 1012.31
1011.57 1011.82 1011.99 1012.12 1012.25 1012.41 1012.62 1012.87 1013.15 1013.40 1013.60 1013.68 1013.62 1013.42 1013.09 1012.67 1012.22 1011.79 1011.44 1011.18 1011.04 1011.01 1011.06 1011.16 1011.27 1011.36 1011.42 1011.45 1011.45 1011.45 1011.47 1011.53 1011.64 1011.79 1011.97 1012.16 1012.34 1012.48 1012.57 1012.61 1012.60 1012.58 1012.58 1012.62
1011.98 1012.08 1012.12 1012.13 1012.17 1012.28 1012.49 1012.78 1013.13 1013.46 1013.73 1013.86 1013.82 1013.60 1013.23 1012.74 1012.21 1011.71 1011.31 1011.03 1010.90 1010.90 1011.01 1011.17 1011.34 1011.50 1011.60 1011.67 1011.70 1011.72 1011.76 1011.84 1011.97 1012.14 1012.34 1012.54 1012.72 1012.84 1012.91 1012.93 1012.91 1012.89 1012.89 1012.96
1012.21 1012.21 1012.14 1012.07 1012.06 1012.16 1012.39 1012.73 1013.13 1013.53 1013.83 1013.99 1013.94 1013.69 1013.25 1012.70 1012.10 1011.55 1011.12 1010.84 1010.74 1010.79 1010.96 1011.19 1011.43 1011.64 1011.79 1011.88 1011.93 1011.96 1012.01 1012.10 1012.24 1012.43 1012.64 1012.85 1013.02 1013.14 1013.20 1013.21 1013.19 1013.17 1013.19 1013.29
1012.30 1012.22 1012.09 1011.99 1011.97 1012.10 1012.37 1012.76 1013.22 1013.65 1013.98 1014.12 1014.03 1013.72 1013.22 1012.59 1011.94 1011.35 1010.90 1010.65 1010.59 1010.70 1010.94 1011.24 1011.54 1011.78 1011.96 1012.06 1012.11 1012.14 1012.19 1012.27 1012.42 1012.60 1012.81 1013.02 1013.19 1013.31 1013.37 1013.38 1013.36 1013.36 1013.42 1013.55
1012.30 1012.17 1012.03 1011.93 1011.95 1012.12 1012.46 1012.91 1013.41 1013.86 1014.18 1014.29 1014.14 1013.75 1013.17 1012.47 1011.77 1011.15 1010.71 1010.48 1010.47 1010.65 1010.95 1011.31 1011.66 1011.94 1012.12 1012.22 1012.25 1012.26 1012.27 1012.34 1012.46 1012.62 1012.83 1013.03 1013.20 1013.31 1013.37 1013.39 1013.39 1013.41 1013.49 1013.64
1012.27 1012.12 1011.98 1011.92 1012.00 1012.25 1012.65 1013.17 1013.70 1014.16 1014.45 1014.50 1014.28 1013.81 1013.14 1012.38 1011.63 1011.00 1010.57 1010.38 1010.42 1010.66 1011.02 1011.43 1011.80 1012.10 1012.28 1012.35 1012.35 1012.31 1012.28 1012.30 1012.38 1012.52 1012.69 1012.87 1013.03 1013.14 1013.21 1013.23 1013.24 1013.27 1013.36 1013.54
1012.23 1012.08 1011.97 1011.97 1012.12 1012.44 1012.92 1013.48 1014.03 1014.48 1014.73 1014.72 1014.42 1013.87 1013.14 1012.32 1011.55 1010.92 1010.50 1010.35 1010.44 1010.73 1011.14 1011.58 1011.98 1012.27 1012.43 1012.47 1012.42 1012.33 1012.24 1012.20 1012.23 1012.32 1012.46 1012.61 1012.75 1012.85 1012.90 1012.91 1012.92 1012.96 1013.05 1013.21
1012.20 1012.05 1011.98 1012.03 1012.26 1012.65 1013.18 1013.77 1014.33 1014.75 1014.96 1014.88 1014.52 1013.91 1013.13 1012.29 1011.51 1010.89 1010.51 1010.39 1010.53 1010.86 1011.30 1011.77 1012.17 1012.45 1012.59 1012.60 1012.50 1012.35 1012.21 1012.11 1012.08 1012.12 1012.21 1012.32 1012.42 1012.49 1012.52 1012.52 1012.50 1012.52 1012.58 1012.73
1012.15 1012.02 1011.98 1012.09 1012.36 1012.80 1013.35 1013.95 1014.49 1014.88 1015.03 1014.91 1014.50 1013.87 1013.07 1012.24 1011.49 1010.91 1010.57 1010.50 1010.67 1011.03 1011.50 1011.97 1012.37 1012.64 1012.76 1012.74 1012.61 1012.42 1012.23 1012.08 1012.00 1011.99 1012.02 1012.09 1012.15 1012.18 1012.17 1012.13 1012.07 1012.04 1012.06 1012.16
1012.06 1011.96 1011.96 1012.10 1012.40 1012.84 1013.38 1013.95 1014.44 1014.77 1014.88 1014.72 1014.30 1013.67 1012.91 1012.13 1011.45 1010.93 1010.66 1010.64 1010.86 1011.24 1011.71 1012.18 1012.57 1012.83 1012.93 1012.90 1012.75 1012.54 1012.33 1012.15 1012.03 1011.98 1011.98 1012.00 1012.01 1012.00 1011.94 1011.84 1011.73 1011.64 1011.59 1011.62
1011.92 1011.86 1011.90 1012.06 1012.36 1012.77 1013.25 1013.74 1014.15 1014.41 1014.46 1014.28 1013.87 1013.29 1012.61 1011.93 1011.35 1010.94 1010.75 1010.80 1011.05 1011.44 1011.91 1012.36 1012.74 1012.98 1013.08 1013.05 1012.90 1012.71 1012.50 1012.32 1012.20 1012.13 1012.10 1012.08 1012.05 1011.99 1011.88 1011.73 1011.56 1011.39 1011.27 1011.22
1011.75 1011.76 1011.83 1011.99 1012.25 1012.60 1012.98 1013.35 1013.65 1013.81 1013.80 1013.60 1013.22 1012.72 1012.16 1011.62 1011.18 1010.90 1010.81 1010.93 1011.22 1011.62 1012.07 1012.50 1012.85 1013.08 1013.18 1013.16 1013.05 1012.88 1012.71 1012.56 1012.45 1012.39 1012.35 1012.32 1012.26 1012.16 1012.01 1011.81 1011.58 1011.35 1011.15 1011.01
1011.60 1011.68 1011.79 1011.94 1012.14 1012.38 1012.63 1012.85 1012.99 1013.03 1012.94 1012.72 1012.39 1011.99 1011.57 1011.19 1010.92 1010.79 1010.82 1011.01 1011.34 1011.74 1012.17 1012.57 1012.89 1013.11 1013.21 1013.22 1013.14 1013.03 1012.92 1012.82 1012.75 1012.71 1012.69 1012.66 1012.59 1012.48 1012.30 1012.06 1011.78 1011.49 1011.22 1011.00
1011.51 1011.67 1011.82 1011.95 1012.08 1012.18 1012.26 1012.29 1012.26 1012.15 1011.97 1011.72 1011.44 1011.14 1010.86 1010.67 1010.57 1010.60 1010.76 1011.03 1011.38 1011.78 1012.19 1012.55 1012.84 1013.04 1013.15 1013.19 1013.17 1013.12 1013.08 1013.05 1013.04 1013.05 1013.05 1013.04 1012.98 1012.86 1012.66 1012.41 1012.11 1011.78 1011.45 1011.16
1011.51 1011.75 1011.93 1012.04 1012.07 1012.03 1011.91 1011.74 1011.51 1011.25 1010.96 1010.68 1010.42 1010.22 1010.09 1010.07 1010.15 1010.33 1010.61 1010.96 1011.34 1011.74 1012.12 1012.44 1012.70 1012.89 1013.01 1013.08 1013.12 1013.14 1013.17 1013.22 1013.27 1013.33 1013.38 1013.38 1013.34 1013.23 1013.04 1012.78 1012.47 1012.13 1011.77 1011.43
1011.57 1011.88 1012.08 1012.15 1012.09 1011.90 1011.60 1011.23 1010.80 1010.37 1009.98 1009.65 1009.41 1009.29 1009.30 1009.42 1009.66 1009.99 1010.38 1010.80 1011.22 1011.62 1011.97 1012.26 1012.50 1012.67 1012.81 1012.92 1013.01 1013.11 1013.22 1013.33 1013.45 1013.55 1013.63 1013.66 1013.64 1013.54 1013.36 1013.11 1012.81 1012.46 1012.09 1011.72
1011.62 1011.98 1012.18 1012.22 1012.07 1011.74 1011.28 1010.72 1010.13 1009.55 1009.06 1008.68 1008.46 1008.41 1008.52 1008.78 1009.16 1009.61 1010.10 1010.58 1011.04 1011.44 1011.78 1012.05 1012.28 1012.46 1012.62 1012.76 1012.91 1013.08 1013.25 1013.42 1013.58 1013.72 1013.82 1013.86 1013.84 1013.75 1013.58 1013.35 1013.05 1012.71 1012.34 1011.96
1011.53 1011.90 1012.10 1012.10 1011.88 1011.45 1010.87 1010.18 1009.46 1008.78 1008.22 1007.82 1007.61 1007.62 1007.82 1008.19 1008.68 1009.23 1009.80 1010.35 1010.84 1011.26 1011.60 1011.88 1012.10 1012.30 1012.49 1012.68 1012.89 1013.10 1013.32 1013.53 1013.71 1013.86 1013.96 1014.00 1013.97 1013.86 1013.70 1013.47 1013.19 1012.86 1012.50 1012.12
1011.19 1011.54 1011.71 1011.68 1011.41 1010.93 1010.28 1009.53 1008.75 1008.03 1007.45 1007.06 1006.89 1006.96 1007.24 1007.70 1008.29 1008.92 1009.57 1010.16 1010.69 1011.14 1011.50 1011.79 1012.04 1012.27 1012.49 1012.73 1012.98 1013.23 1013.48 1013.71 1013.90 1014.03 1014.10 1014.11 1014.04 1013.92 1013.74 1013.50 1013.23 1012.91 1012.57 1012.19
1010.53 1010.81 1010.94 1010.87 1010.60 1010.12 1009.48 1008.74 1007.98 1007.30 1006.76 1006.42 1006.33 1006.47 1006.84 1007.38 1008.04 1008.74 1009.44 1010.09 1010.66 1011.13 1011.52 1011.85 1012.13 1012.40 1012.66 1012.94 1013.22 1013.50 1013.76 1013.98 1014.14 1014.24 1014.27 1014.22 1014.11 1013.94 1013.73 1013.48 1013.20 1012.89 1012.56 1012.19
1009.51 1009.69 1009.77 1009.69 1009.44 1009.02 1008.45 1007.81 1007.16 1006.59 1006.16 1005.94 1005.95 1006.19 1006.64 1007.26 1007.98 1008.75 1009.49 1010.18 1010.78 1011.29 1011.71 1012.07 1012.39 1012.69 1012.99 1013.29 1013.60 1013.88 1014.14 1014.33 1014.46 1014.50 1014.46 1014.35 1014.18 1013.96 1013.70 1013.43 1013.14 1012.84 1012.51 1012.16
1008.22 1008.28 1008.30 1008.22 1008.03 1007.71 1007.29 1006.81 1006.34 1005.95 1005.69 1005.63 1005.77 1006.13 1006.68 1007.38 1008.15 1008.96 1009.74 1010.46 1011.08 1011.62 1012.06 1012.45 1012.79 1013.12 1013.44 1013.75 1014.06 1014.33 1014.56 1014.71 1014.79 1014.77 1014.67 1014.49 1014.25 1013.98 1013.69 1013.39 1013.09 1012.78 1012.47 1012.13
1006.78 1006.72 1006.68 1006.62 1006.51 1006.33 1006.09 1005.83 1005.59 1005.42 1005.38 1005.51 1005.81 1006.30 1006.94 1007.71 1008.54 1009.38 1010.18 1010.91 1011.55 1012.09 1012.55 1012.94 1013.29 1013.62 1013.94 1014.24 1014.53 1014.78 1014.96 1015.07 1015.09 1015.02 1014.85 1014.62 1014.33 1014.02 1013.70 1013.38 1013.07 1012.76 1012.45 1012.12
1005.37 1005.19 1005.11 1005.08 1005.06 1005.04 1005.01 1004.98 1004.99 1005.07 1005.26 1005.58 1006.05 1006.66 1007.40 1008.22 1009.09 1009.94 1010.75 1011.48 1012.11 1012.65 1013.10 1013.48 1013.82 1014.12 1014.41 1014.69 1014.94 1015.14 1015.28 1015.34 1015.32 1015.20 1015.00 1014.73 1014.41 1014.07 1013.73 1013.40 1013.09 1012.78 1012.48 1012.16
1004.14 1003.87 1003.76 1003.77 1003.86 1004.00 1004.17 1004.38 1004.62 1004.93 1005.33 1005.83 1006.45 1007.17 1007.98 1008.84 1009.73 1010.58 1011.38 1012.09 1012.70 1013.22 1013.64 1013.99 1014.29 1014.56 1014.80 1015.03 1015.22 1015.38 1015.48 1015.50 1015.45 1015.30 1015.09 1014.81 1014.49 1014.14 1013.80 1013.48 1013.17 1012.87 1012.57 1012.25
Thickness
5780 5766 5757 5764 5768 5766 5762 5755 5751 5757 5770 5761 5753 5754 5759 5764 5762 5759 5758 5758 5756 5756 5759 5759 5756 5754 5751 5748 5746 5743 5739 5736 5733 5729 5725 5722 5720 5720 5719 5719 5717 5716 5715 5714
5766 5759 5770 5776 5774 5767 5761 5752 5751 5758 5768 5761 5753 5754 5763 5765 5762 5762 5759 5758 5757 5755 5755 5754 5754 5752 5749 5746 5744 5742 5738 5735 5732 5728 5726 5723 5720 5718 5717 5716 5715 5714 5713 5712
5758 5766 5776 5770 5764 5759 5757 5753 5751 5750 5758 5761 5752 5745 5756 5763 5767 5765 5764 5762 5760 5757 5753 5752 5751 5750 5747 5744 5743 5741 5737 5734 5730 5727 5725 5721 5718 5715 5713 5711 5711 5711 5710 5709
5762 5772 5769 5762 5759 5758 5749 5762 5758 5752 5742 5738 5746 5723 5746 5757 5757 5758 5759 5759 5758 5758 5755 5752 5750 5747 5745 5743 5743 5740 5736 5733 5730 5726 5722 5717 5712 5708 5709 5709 5708 5709 5708 5707
5756 5765 5760 5754 5760 5762 5756 5764 5757 5752 5743 5738 5746 5733 5742 5756 5748 5753 5758 5759 5758 5757 5755 5752 5749 5747 5745 5743 5740 5738 5734 5730 5727 5724 5720 5716 5712 5710 5709 5709 5707 5706 5705 5704
5761 5769 5766 5762 5768 5767 5763 5757 5754 5751 5740 5722 5743 5737 5734 5749 5752 5755 5759 5760 5758 5757 5754 5751 5749 5746 5743 5741 5737 5734 5730 5727 5725 5722 5719 5715 5711 5709 5706 5704 5702 5702 5701 5701
5747 5757 5766 5767 5754 5759 5755 5737 5720 5719 5715 5724 5753 5743 5742 5758 5765 5762 5759 5759 5758 5756 5752 5748 5744 5741 5738 5736 5733 5730 5726 5722 5721 5719 5717 5715 5712 5709 5705 5703 5701 5699 5698 5697
5734 5735 5754 5759 5750 5744 5748 5740 5716 5706 5714 5730 5747 5739 5748 5767 5769 5767 5764 5761 5757 5753 5750 5746 5743 5739 5736 5733 5730 5727 5723 5720 5718 5716 5715 5713 5711 5708 5705 5703 5701 5699 5697 5696
5734 5734 5755 5758 5758 5751 5740 5740 5747 5729 5725 5720 5732 5741 5747 5763 5760 5759 5758 5755 5751 5749 5747 5744 5741 5738 5734 5731 5728 5725 5721 5718 5715 5714 5712 5710 5709 5706 5704 5702 5701 5698 5697 5696
5739 5729 5742 5751 5751 5749 5745 5741 5733 5721 5706 5704 5723 5730 5729 5739 5744 5749 5749 5747 5747 5747 5745 5742 5738 5735 5734 5730 5727 5724 5721 5717 5714 5712 5710 5709 5707 5705 5703 5700 5698 5696 5695 5694
5740 5726 5731 5737 5732 5731 5734 5731 5728 5723 5720 5705 5702 5716 5748 5745 5748 5746 5747 5746 5744 5742 5740 5738 5736 5733 5731 5728 5724 5720 5718 5715 5712 5710 5708 5706 5704 5703 5701 5698 5696 5694 5693 5692
5734 5725 5720 5731 5745 5747 5737 5731 5723 5706 5708 5716 5708 5713 5752 5751 5751 5748 5745 5744 5743 5740 5738 5735 5733 5730 5727 5724 5721 5717 5715 5712 5710 5708 5706 5704 5702 5700 5697 5695 5693 5692 5691 5690
5722 5714 5704 5711 5720 5730 5727 5729 5727 5721 5713 5707 5699 5709 5745 5746 5745 5745 5741 5739 5738 5735 5733 5731 5727 5725 5722 5719 5717 5715 5713 5710 5708 5706 5703 5701 5699 5696 5694 5692 5691 5689 5688 5686
5715 5708 5703 5698 5707 5716 5716 5720 5722 5714 5700 5701 5708 5714 5727 5732 5732 5735 5736 5735 5733 5731 5728 5725 5722 5720 5718 5716 5715 5713 5710 5708 5705 5702 5699 5697 5695 5693 5691 5690 5688 5686 5684 5681
5710 5700 5706 5714 5720 5719 5715 5714 5716 5711 5710 5702 5710 5714 5721 5726 5728 5731 5732 5731 5727 5724 5722 5720 5717 5716 5714 5712 5711 5710 5707 5704 5702 5698 5695 5693 5692 5690 5688 5685 5683 5681 5679 5677
5704 5696 5700 5702 5713 5713 5709 5714 5714 5713 5713 5710 5710 5713 5726 5728 5728 5726 5725 5723 5720 5717 5715 5714 5713 5711 5709 5707 5706 5705 5703 5700 5697 5694 5691 5690 5687 5685 5683 5680 5678 5676 5673 5671
5694 5690 5684 5686 5702 5701 5693 5711 5713 5712 5714 5711 5702 5709 5720 5718 5718 5717 5718 5716 5714 5713 5711 5709 5708 5707 5705 5704 5703 5701 5700 5697 5693 5690 5688 5686 5683 5680 5678 5677 5673 5670 5668 5666
5686 5683 5679 5678 5682 5671 5702 5721 5717 5710 5711 5712 5710 5712 5714 5713 5714 5716 5716 5712 5709 5709 5708 5706 5705 5703 5703 5702 5700 5698 5696 5692 5689 5687 5684 5682 5679 5676 5674 5671 5668 5665 5663 5660
5689 5678 5671 5670 5667 5679 5699 5707 5707 5699 5698 5710 5707 5708 5709 5711 5708 5707 5712 5711 5707 5706 5704 5703 5702 5701 5699 5697 5696 5694 5691 5688 5685 5682 5680 5678 5675 5671 5668 5665 5663 5661 5658 5655
5681 5678 5666 5663 5656 5659 5684 5700 5707 5696 5684 5703 5704 5702 5702 5700 5684 5691 5705 5705 5703 5702 5700 5698 5697 5696 5694 5693 5692 5688 5685 5683 5680 5677 5675 5674 5672 5668 5664 5661 5659 5657 5654 5651
5661 5660 5656 5655 5654 5668 5687 5695 5694 5670 5674 5694 5697 5696 5695 5691 5689 5695 5699 5698 5697 5695 5695 5693 5690 5688 5687 5687 5686 5682 5680 5677 5677 5675 5671 5668 5666 5664 5661 5658 5655 5652 5650 5647
5657 5653 5654 5655 5649 5656 5684 5682 5674 5674 5686 5688 5688 5689 5689 5689 5691 5692 5691 5690 5689 5686 5686 5685 5682 5680 5681 5681 5679 5676 5674 5674 5673 5669 5666 5662 5660 5659 5657 5653 5649 5647 5644 5641
5658 5657 5656 5657 5659 5674 5680 5677 5679 5681 5678 5680 5681 5683 5683 5682 5682 5682 5681 5681 5680 5679 5678 5678 5675 5673 5673 5673 5672 5669 5669 5669 5666 5663 5660 5657 5655 5654 5652 5648 5644 5641 5638 5635
5657 5663 5655 5653 5662 5670 5673 5673 5674 5674 5673 5675 5676 5676 5676 5674 5673 5672 5672 5672 5672 5672 5671 5670 5667 5665 5664 5665 5665 5665 5664 5663 5660 5656 5654 5652 5650 5647 5646 5643 5640 5636 5633 5630
5644 5648 5646 5646 5654 5658 5662 5663 5665 5667 5669 5669 5669 5669 5668 5667 5665 5664 5663 5664 5665 5665 5664 5663 5660 5658 5657 5658 5658 5659 5659 5657 5652 5649 5647 5646 5644 5641 5639 5637 5635 5632 5630 5628
5638 5638 5634 5636 5646 5646 5649 5655 5658 5658 5659 5660 5659 5659 5661 5660 5658 5658 5657 5657 5657 5657 5657 5655 5654 5652 5652 5651 5651 5652 5652 5650 5646 5643 5641 5639 5637 5635 5632 5630 5628 5627 5625 5623